Weather History for Cairns, QU

Change the Weather History Date:

Monday, October 25, 2010

  Actual Average Record
Temperature  
Mean Temperature 78 °F -  
Max Temperature 87 °F 87 °F 89 °F (2002)
Min Temperature 69 °F 72 °F 62 °F (2008)
Cooling Degree Days 13    
Growing Degree Days 28 (Base 50)    
Moisture  
Dew Point 67 °F    
Average Humidity 69    
Maximum Humidity 88    
Minimum Humidity 40    
Precipitation  
Precipitation 0.00 in 0.12 in - ()
Sea Level Pressure  
Sea Level Pressure 29.92 in    
Wind  
Wind Speed 9 mph ()    
Max Wind Speed 15 mph    
Max Gust Speed -    
Visibility 7.9 miles    
Events      
Averages and records for this station are not official NWS values.
T = Trace of Precipitation, MM = Missing Value Source: Averaged Metar Reports

Daily Weather History Graph

Daily Weather History Graph

Search for Another Location

Airport:

Trip Planner

Search our weather history database for the weather conditions in past years. The results will help you decide how hot, cold, wet, or windy it might be!

Date:

Astronomy

Oct. 25, 2010 Rise Set
Actual Time 5:42 AM AEST 6:19 PM AEST
Civil Twilight 5:20 AM AEST 6:41 PM AEST
Nautical Twilight 4:54 AM AEST 7:07 PM AEST
Astronomical Twilight 4:28 AM AEST 7:34 PM AEST
Moon 8:16 PM AEST (10/25) 6:50 AM AEST (10/25)
Length of Visible Light 13h 21m
Length of Day
12h 36m
Waning Gibbous, 96% of the Moon is Illuminated
Oct 25
Waning Gibbous
Oct 30
Last Quarter
Nov 6
New
Nov 14
First Quarter
Nov 22
Full

Hourly Weather History & Observations

Time (AEST) Temp. Heat Index Dew Point Humidity Pressure Visibility Wind Dir Wind Speed Gust Speed Precip Events Conditions
12:00 AM 75 °F - 68 °F 72% 29.96 in - South 8.1 mph - -  
12:00 AM 75.2 °F - 68.0 °F 78% 29.95 in 6.2 mi South 8.1 mph - N/A   Partly Cloudy
12:30 AM 73.4 °F - 68.0 °F 83% 29.95 in 6.2 mi South 8.1 mph - N/A   Partly Cloudy
1:00 AM 72 °F - 68 °F 85% 29.94 in - SE 9.2 mph - -  
1:00 AM 73.4 °F - 68.0 °F 83% 29.92 in 6.2 mi SE 9.2 mph - N/A   Partly Cloudy
1:30 AM 75.2 °F - 68.0 °F 78% 29.92 in 6.2 mi South 9.2 mph - N/A   Partly Cloudy
2:00 AM 73.4 °F - 68.0 °F 83% 29.92 in 6.2 mi SSE 8.1 mph - N/A   Partly Cloudy
2:30 AM 71.6 °F - 68.0 °F 88% 29.92 in 6.2 mi SSE 10.4 mph - N/A   Partly Cloudy
3:00 AM 73 °F - 67 °F 75% 29.91 in 19 mi South 9.2 mph - -   Partly Cloudy
3:00 AM 73.4 °F - 66.2 °F 78% 29.89 in 6.2 mi South 9.2 mph - N/A   Partly Cloudy
3:30 AM 73.4 °F - 66.2 °F 78% 29.89 in 6.2 mi South 8.1 mph - N/A   Partly Cloudy
4:00 AM 71 °F - 67 °F 83% 29.91 in - SE 10.4 mph - -  
4:00 AM 69.8 °F - 66.2 °F 88% 29.89 in 6.2 mi SE 10.4 mph - N/A   Partly Cloudy
5:00 AM 69.8 °F - 66.2 °F 88% 29.92 in 6.2 mi SSE 9.2 mph - N/A   Partly Cloudy
5:30 AM 69.8 °F - 66.2 °F 88% 29.92 in 6.2 mi SE 11.5 mph - N/A   Partly Cloudy
6:00 AM 70 °F - 66 °F 83% 29.92 in 19 mi SE 11.5 mph - -   Partly Cloudy
6:00 AM 69.8 °F - 66.2 °F 88% 29.92 in 6.2 mi SE 11.5 mph - N/A   Partly Cloudy
6:30 AM 71.6 °F - 66.2 °F 83% 29.92 in 6.2 mi SE 12.7 mph - N/A   Partly Cloudy
7:00 AM 72 °F - 67 °F 78% 29.95 in - ESE 10.4 mph - -  
7:00 AM 73.4 °F - 66.2 °F 78% 29.95 in 6.2 mi ESE 10.4 mph - N/A   Partly Cloudy
7:30 AM 75.2 °F - 66.2 °F 73% 29.95 in 6.2 mi SE 10.4 mph - N/A   Partly Cloudy
8:00 AM 78.8 °F - 66.2 °F 65% 29.95 in 6.2 mi South 12.7 mph - N/A   Partly Cloudy
8:30 AM 78.8 °F - 66.2 °F 65% 29.95 in 6.2 mi SSE 10.4 mph - N/A   Partly Cloudy
9:00 AM 82 °F - 67 °F 52% 29.96 in 19 mi SSE 11.5 mph - -   Partly Cloudy
9:00 AM 82.4 °F 85.4 °F 68.0 °F 62% 29.95 in 6.2 mi SSE 11.5 mph - N/A   Partly Cloudy
9:30 AM 82.4 °F 85.4 °F 68.0 °F 62% 29.95 in 6.2 mi SSE 8.1 mph - N/A   Partly Cloudy
10:00 AM 83 °F - 68 °F 51% 29.96 in - SE 11.5 mph - -  
10:00 AM 84.2 °F 87.3 °F 68.0 °F 58% 29.95 in 6.2 mi SE 11.5 mph - N/A   Partly Cloudy
10:30 AM 84.2 °F 86.6 °F 66.2 °F 55% 29.95 in 6.2 mi SE 9.2 mph - N/A   Partly Cloudy
11:00 AM 86.0 °F 88.2 °F 66.2 °F 51% 29.95 in 6.2 mi SE 11.5 mph - N/A   Partly Cloudy
11:30 AM 86.0 °F 87.3 °F 64.4 °F 48% 29.92 in 6.2 mi SE 13.8 mph - N/A   Partly Cloudy
12:00 PM 87 °F - 67 °F 42% 29.93 in 19 mi ESE 12.7 mph - -   Partly Cloudy
12:00 PM 86.0 °F 88.2 °F 66.2 °F 51% 29.92 in 6.2 mi ESE 12.7 mph - N/A   Partly Cloudy
12:30 PM 86.0 °F 87.3 °F 64.4 °F 48% 29.92 in 6.2 mi ESE 12.7 mph - N/A   Partly Cloudy
1:00 PM 86.0 °F 88.2 °F 66.2 °F 51% 29.89 in 6.2 mi SE 13.8 mph - N/A   Partly Cloudy
1:30 PM 86.0 °F 87.3 °F 64.4 °F 48% 29.89 in 6.2 mi SE 13.8 mph - N/A   Partly Cloudy
2:00 PM 86.0 °F 86.6 °F 62.6 °F 45% 29.89 in 6.2 mi ESE 15.0 mph - N/A   Partly Cloudy
2:30 PM 86.0 °F 87.3 °F 64.4 °F 48% 29.86 in 6.2 mi ESE 11.5 mph - N/A   Partly Cloudy
3:00 PM 86 °F - 65 °F 40% 29.88 in 19 mi ESE 9.2 mph - -   Partly Cloudy
3:00 PM 86.0 °F 88.2 °F 66.2 °F 51% 29.86 in 6.2 mi ESE 9.2 mph - N/A   Partly Cloudy
3:30 PM 84.2 °F 86.6 °F 66.2 °F 55% 29.86 in 6.2 mi East 15.0 mph - N/A   Partly Cloudy
4:00 PM 84 °F - 66 °F 46% 29.89 in - East 13.8 mph - -  
4:00 PM 84.2 °F 86.6 °F 66.2 °F 55% 29.86 in 6.2 mi East 13.8 mph - N/A   Partly Cloudy
4:30 PM 82.4 °F 84.6 °F 66.2 °F 58% 29.89 in 6.2 mi SE 10.4 mph - N/A   Partly Cloudy
5:00 PM 80.6 °F 82.7 °F 66.2 °F 61% 29.89 in 6.2 mi SE 10.4 mph - N/A   Partly Cloudy
5:30 PM 80.6 °F 83.2 °F 68.0 °F 65% 29.89 in 6.2 mi SE 8.1 mph - N/A   Partly Cloudy
6:00 PM 78 °F - 66 °F 58% 29.91 in 19 mi South 4.6 mph - -   Partly Cloudy
6:00 PM 78.8 °F - 66.2 °F 65% 29.89 in 6.2 mi South 4.6 mph - N/A   Partly Cloudy
6:30 PM 77.0 °F - 68.0 °F 74% 29.92 in 6.2 mi South 8.1 mph - N/A   Partly Cloudy
7:00 PM 76 °F - 68 °F 70% 29.93 in - SSE 5.8 mph - -  
7:00 PM 75.2 °F - 68.0 °F 78% 29.92 in 6.2 mi SSE 5.8 mph - N/A   Partly Cloudy
7:30 PM 75.2 °F - 68.0 °F 78% 29.92 in 6.2 mi South 4.6 mph - N/A   Partly Cloudy
8:00 PM 75.2 °F - 69.8 °F 83% 29.95 in 6.2 mi South 6.9 mph - N/A   Partly Cloudy
8:30 PM 75.2 °F - 68.0 °F 78% 29.95 in 6.2 mi South 5.8 mph - N/A   Partly Cloudy
9:00 PM 74 °F - 68 °F 77% 29.96 in 19 mi SSE 5.8 mph - -   Partly Cloudy
9:00 PM 73.4 °F - 68.0 °F 83% 29.95 in 6.2 mi SSE 5.8 mph - N/A   Partly Cloudy
9:30 PM 75.2 °F - 68.0 °F 78% 29.95 in 6.2 mi South 6.9 mph - N/A   Partly Cloudy
10:00 PM 74 °F - 69 °F 78% 29.98 in - South 6.9 mph - -  
10:00 PM 75.2 °F - 68.0 °F 78% 29.98 in 6.2 mi South 6.9 mph - N/A   Partly Cloudy
10:30 PM 73.4 °F - 68.0 °F 83% 29.98 in 6.2 mi South 8.1 mph - N/A   Partly Cloudy
11:00 PM 73.4 °F - 68.0 °F 83% 29.98 in 6.2 mi SSE 8.1 mph - N/A   Partly Cloudy
11:30 PM 73.4 °F - 68.0 °F 83% 29.95 in 6.2 mi SSE 8.1 mph - N/A   Partly Cloudy